TimeEST,TemperatureF,Dew PointF,Humidity,Sea Level PressureIn,VisibilityMPH,Wind Direction,Wind SpeedMPH,Gust SpeedMPH,PrecipitationIn,Events,Conditions,WindDirDegrees,DateUTC
12:54 AM,27.0,19.0,72,29.97,10.0,Calm,Calm,-,N/A,,Clear,0,2014-01-17 05:54:00
1:54 AM,25.0,18.0,75,29.97,10.0,Calm,Calm,-,N/A,,Clear,0,2014-01-17 06:54:00
2:54 AM,25.0,19.0,78,29.98,10.0,Calm,Calm,-,N/A,,Clear,0,2014-01-17 07:54:00
3:54 AM,26.1,21.0,81,29.97,10.0,Calm,Calm,-,N/A,,Clear,0,2014-01-17 08:54:00
4:54 AM,25.0,19.9,81,29.97,9.0,Calm,Calm,-,N/A,,Clear,0,2014-01-17 09:54:00
5:54 AM,23.0,19.0,85,29.96,9.0,Calm,Calm,-,N/A,,Clear,0,2014-01-17 10:54:00
6:54 AM,26.1,21.0,81,29.96,8.0,ESE,4.6,-,N/A,,Clear,120,2014-01-17 11:54:00
8:54 AM,32.0,27.0,82,30.00,5.0,Calm,Calm,-,N/A,,Haze,0,2014-01-17 13:54:00
9:54 AM,36.0,28.9,76,30.01,6.0,SSW,9.2,-,N/A,,Haze,210,2014-01-17 14:54:00
10:54 AM,39.0,28.9,67,29.99,9.0,SW,8.1,-,N/A,,Mostly Cloudy,220,2014-01-17 15:54:00
11:54 AM,42.1,28.0,58,29.97,10.0,SSW,5.8,-,N/A,,Clear,210,2014-01-17 16:54:00
12:54 PM,44.1,28.0,53,29.94,10.0,SW,6.9,-,N/A,,Clear,230,2014-01-17 17:54:00
1:54 PM,44.1,28.0,53,29.94,10.0,Calm,Calm,-,N/A,,Clear,0,2014-01-17 18:54:00
2:54 PM,46.9,28.0,48,29.94,10.0,Calm,Calm,-,N/A,,Clear,0,2014-01-17 19:54:00
3:54 PM,45.0,26.1,48,29.93,10.0,Calm,Calm,-,N/A,,Clear,0,2014-01-17 20:54:00
4:54 PM,43.0,25.0,49,29.93,10.0,Calm,Calm,-,N/A,,Clear,0,2014-01-17 21:54:00
5:54 PM,39.9,26.1,58,29.95,10.0,Calm,Calm,-,N/A,,Clear,0,2014-01-17 22:54:00
6:54 PM,37.0,26.1,65,29.94,10.0,NE,3.5,-,N/A,,Clear,40,2014-01-17 23:54:00
7:54 PM,37.0,27.0,67,29.95,10.0,Calm,Calm,-,N/A,,Partly Cloudy,0,2014-01-18 00:54:00
8:54 PM,37.0,27.0,67,29.95,10.0,Calm,Calm,-,N/A,,Clear,0,2014-01-18 01:54:00
9:54 PM,36.0,27.0,70,29.94,10.0,NE,4.6,-,N/A,,Clear,50,2014-01-18 02:54:00
10:54 PM,36.0,28.0,73,29.91,10.0,ENE,3.5,-,N/A,,Scattered Clouds,60,2014-01-18 03:54:00
11:54 PM,36.0,28.0,73,29.87,10.0,NE,4.6,-,N/A,,Clear,50,2014-01-18 04:54:00